User: anonymous   Login
Location: Melbourne
(37.8666°S, 145.1333°E)
Time: 13:45:11
(UTC+10:00)
Language:

ATLAS CENTAUR R/B - Orbit

View from above orbital plane
View from above orbital plane
View from above satellite
View from above satellite

Ground track
Ground track

The orbit data is extracted from the following two-line orbital elements,

1 28385U 04034B   15145.98637495 0.00054000  00000-0  16301-2 0    09
2 28385  57.3066 125.2452 3948725 101.1959 304.6877  7.59278499    05
Epoch (UTC): 25 May 2015 23:40:22
Eccentricity: 0.3948725
inclination: 57.3066°
perigee height: 238 km
apogee height: 8874 km
right ascension of ascending node: 125.2452°
argument of perigee: 101.1959°
revolutions per day: 7.59278499
mean anomaly at epoch: 304.6877°
orbit number at epoch: 0

The dashed part of the orbit path shows where the satellite is in the earth's shadow,  

DLR